Time,TemperatureF,DewpointF,PressureIn,WindDirection,WindDirectionDegrees,WindSpeedMPH,WindSpeedGustMPH,Humidity,HourlyPrecipIn,Conditions,Clouds,dailyrainin,SoftwareType,DateUTC
2013-12-15 00:06:00,31.7,28.3,30.08,NW,315,1.8,2.9,87,0.00,,,0.00,WUHU216HW,2013-12-15 07:06:00,
2013-12-15 00:16:00,31.1,27.7,30.06,NE,45,2.5,3.1,87,0.00,,,0.00,WUHU216HW,2013-12-15 07:16:00,
2013-12-15 00:26:00,30.6,27.6,30.07,NNW,338,1.6,1.8,88,0.00,,,0.00,WUHU216HW,2013-12-15 07:26:00,
2013-12-15 00:36:00,30.2,27.2,30.07,ESE,113,0.0,4.3,88,0.00,,,0.00,WUHU216HW,2013-12-15 07:36:00,
2013-12-15 00:46:00,30.1,26.6,30.07,East,90,0.7,2.9,87,0.00,,,0.00,WUHU216HW,2013-12-15 07:46:00,
2013-12-15 00:57:00,30.1,27.0,30.07,West,270,1.6,1.6,88,0.00,,,0.00,WUHU216HW,2013-12-15 07:57:00,
2013-12-15 01:07:00,29.9,26.5,30.06,SW,225,0.2,3.6,87,0.00,,,0.00,WUHU216HW,2013-12-15 08:07:00,
2013-12-15 01:17:00,29.9,26.5,30.06,NE,45,0.9,1.1,87,0.00,,,0.00,WUHU216HW,2013-12-15 08:17:00,
2013-12-15 01:27:00,29.9,26.5,30.06,ENE,68,1.6,2.2,87,0.00,,,0.00,WUHU216HW,2013-12-15 08:27:00,
2013-12-15 01:37:00,29.9,26.8,30.06,East,90,4.0,4.0,88,0.00,,,0.00,WUHU216HW,2013-12-15 08:37:00,
2013-12-15 01:47:00,29.9,26.5,30.06,ENE,68,4.0,4.0,87,0.00,,,0.00,WUHU216HW,2013-12-15 08:47:00,
2013-12-15 01:57:00,30.1,26.6,30.06,ESE,113,0.7,2.9,87,0.00,,,0.00,WUHU216HW,2013-12-15 08:57:00,
2013-12-15 02:07:00,30.2,27.2,30.06,East,90,3.4,3.4,88,0.00,,,0.00,WUHU216HW,2013-12-15 09:07:00,
2013-12-15 02:17:00,30.1,26.6,30.06,NE,45,2.0,3.8,87,0.00,,,0.00,WUHU216HW,2013-12-15 09:17:00,
2013-12-15 02:27:00,30.1,26.6,30.06,NNE,23,2.5,2.5,87,0.00,,,0.00,WUHU216HW,2013-12-15 09:27:00,
2013-12-15 02:37:00,29.9,26.5,30.06,NE,45,1.1,4.0,87,0.00,,,0.00,WUHU216HW,2013-12-15 09:37:00,
2013-12-15 02:47:00,29.9,26.5,30.06,ESE,113,0.2,2.2,87,0.00,,,0.00,WUHU216HW,2013-12-15 09:47:00,
2013-12-15 02:57:00,29.7,26.3,30.06,East,90,1.1,2.0,87,0.00,,,0.00,WUHU216HW,2013-12-15 09:57:00,
2013-12-15 03:07:00,29.5,26.1,30.06,East,90,1.8,2.5,87,0.00,,,0.00,WUHU216HW,2013-12-15 10:07:00,
2013-12-15 03:17:00,29.9,26.5,30.06,NE,45,2.7,3.1,87,0.00,,,0.00,WUHU216HW,2013-12-15 10:17:00,
2013-12-15 03:27:00,30.1,26.6,30.05,East,90,4.0,4.0,87,0.00,,,0.00,WUHU216HW,2013-12-15 10:27:00,
2013-12-15 03:37:00,30.1,26.6,30.05,West,270,1.6,4.7,87,0.00,,,0.00,WUHU216HW,2013-12-15 10:37:00,
2013-12-15 03:47:00,30.1,26.6,30.05,WNW,293,1.6,2.9,87,0.00,,,0.00,WUHU216HW,2013-12-15 10:47:00,
2013-12-15 03:57:00,29.5,25.8,30.05,NNW,338,1.6,3.6,86,0.00,,,0.00,WUHU216HW,2013-12-15 10:57:00,
2013-12-15 04:07:00,28.8,25.1,30.04,NNE,23,0.4,2.7,86,0.00,,,0.00,WUHU216HW,2013-12-15 11:07:00,
2013-12-15 04:17:00,28.4,25.0,30.05,SW,225,0.4,1.1,87,0.00,,,0.00,WUHU216HW,2013-12-15 11:17:00,
2013-12-15 04:27:00,28.4,25.0,30.05,ENE,68,0.7,2.7,87,0.00,,,0.00,WUHU216HW,2013-12-15 11:27:00,
2013-12-15 04:37:00,28.4,25.0,30.04,South,180,1.6,3.1,87,0.00,,,0.00,WUHU216HW,2013-12-15 11:37:00,
2013-12-15 04:47:00,28.4,25.0,30.04,West,270,0.0,2.0,87,0.00,,,0.00,WUHU216HW,2013-12-15 11:47:00,
2013-12-15 04:57:00,28.6,25.2,30.04,SE,135,0.4,2.5,87,0.00,,,0.00,WUHU216HW,2013-12-15 11:57:00,
2013-12-15 05:07:00,29.2,26.1,30.04,ENE,68,0.2,3.4,88,0.00,,,0.00,WUHU216HW,2013-12-15 12:07:00,
2013-12-15 05:17:00,29.5,26.1,30.04,East,90,0.7,0.9,87,0.00,,,0.00,WUHU216HW,2013-12-15 12:17:00,
2013-12-15 05:27:00,29.7,26.3,30.04,WSW,248,0.4,1.3,87,0.00,,,0.00,WUHU216HW,2013-12-15 12:27:00,
2013-12-15 05:37:00,29.7,26.3,30.04,ENE,68,1.1,1.6,87,0.00,,,0.00,WUHU216HW,2013-12-15 12:37:00,
2013-12-15 05:47:00,29.7,26.3,30.04,ENE,68,1.8,2.9,87,0.00,,,0.00,WUHU216HW,2013-12-15 12:47:00,
2013-12-15 05:57:00,29.7,26.3,30.04,NNE,23,1.3,1.8,87,0.00,,,0.00,WUHU216HW,2013-12-15 12:57:00,
2013-12-15 06:07:00,29.9,26.5,30.04,ENE,68,3.1,4.7,87,0.00,,,0.00,WUHU216HW,2013-12-15 13:07:00,
2013-12-15 06:17:00,29.9,26.2,30.03,WNW,293,1.6,3.4,86,0.00,,,0.00,WUHU216HW,2013-12-15 13:17:00,
2013-12-15 06:27:00,30.1,26.4,30.04,NE,45,0.0,2.0,86,0.00,,,0.00,WUHU216HW,2013-12-15 13:27:00,
2013-12-15 06:37:00,30.1,26.6,30.03,West,270,0.0,1.1,87,0.00,,,0.00,WUHU216HW,2013-12-15 13:37:00,
2013-12-15 06:47:00,29.7,26.0,30.03,SSE,158,0.4,4.7,86,0.00,,,0.00,WUHU216HW,2013-12-15 13:47:00,
2013-12-15 06:57:00,29.5,25.8,30.02,SE,135,0.0,4.7,86,0.00,,,0.00,WUHU216HW,2013-12-15 13:57:00,
2013-12-15 07:07:00,29.5,25.8,30.02,SSW,203,0.4,2.5,86,0.00,,,0.00,WUHU216HW,2013-12-15 14:07:00,
2013-12-15 07:17:00,29.9,26.2,30.03,West,270,3.6,4.9,86,0.00,,,0.00,WUHU216HW,2013-12-15 14:17:00,
2013-12-15 07:27:00,30.1,26.4,30.02,SSE,158,1.8,4.5,86,0.00,,,0.00,WUHU216HW,2013-12-15 14:27:00,
2013-12-15 07:37:00,30.4,26.7,30.02,West,270,0.9,2.2,86,0.00,,,0.00,WUHU216HW,2013-12-15 14:37:00,
2013-12-15 07:47:00,31.0,27.0,30.03,NNW,338,0.2,3.4,85,0.00,,,0.00,WUHU216HW,2013-12-15 14:47:00,
2013-12-15 07:57:00,30.8,26.8,30.03,SW,225,0.0,1.6,85,0.00,,,0.00,WUHU216HW,2013-12-15 14:57:00,
2013-12-15 08:07:00,30.4,26.5,30.03,SW,225,0.4,2.5,85,0.00,,,0.00,WUHU216HW,2013-12-15 15:07:00,
2013-12-15 08:17:00,30.4,26.5,30.03,South,180,1.1,3.8,85,0.00,,,0.00,WUHU216HW,2013-12-15 15:17:00,
2013-12-15 08:27:00,30.4,26.5,30.03,ENE,68,1.8,4.0,85,0.00,,,0.00,WUHU216HW,2013-12-15 15:27:00,
2013-12-15 08:37:00,30.6,26.6,30.03,ENE,68,2.0,2.2,85,0.00,,,0.00,WUHU216HW,2013-12-15 15:37:00,
2013-12-15 08:48:00,30.8,26.8,30.04,NNW,338,0.4,4.9,85,0.00,,,0.00,WUHU216HW,2013-12-15 15:48:00,
2013-12-15 08:58:00,31.3,27.4,30.03,West,270,2.9,2.9,85,0.00,,,0.00,WUHU216HW,2013-12-15 15:58:00,
2013-12-15 09:08:00,32.0,27.8,30.04,SW,225,2.5,3.1,84,0.00,,,0.00,WUHU216HW,2013-12-15 16:08:00,
2013-12-15 09:18:00,32.0,27.8,30.04,SW,225,2.9,3.4,84,0.00,,,0.00,WUHU216HW,2013-12-15 16:18:00,
2013-12-15 09:28:00,32.4,27.8,30.04,WSW,248,3.1,3.1,83,0.00,,,0.00,WUHU216HW,2013-12-15 16:28:00,
2013-12-15 09:38:00,32.8,28.2,30.03,SW,225,3.4,6.5,83,0.00,,,0.00,WUHU216HW,2013-12-15 16:38:00,
2013-12-15 09:48:00,32.8,27.9,30.04,SSW,203,4.3,10.5,82,0.00,,,0.00,WUHU216HW,2013-12-15 16:48:00,
2013-12-15 09:58:00,32.8,27.9,30.03,WSW,248,4.7,4.7,82,0.00,,,0.00,WUHU216HW,2013-12-15 16:58:00,
2013-12-15 10:08:00,32.8,27.9,30.04,WSW,248,0.7,5.4,82,0.00,,,0.00,WUHU216HW,2013-12-15 17:08:00,
2013-12-15 10:18:00,33.1,27.9,30.04,SW,225,1.1,3.8,81,0.00,,,0.00,WUHU216HW,2013-12-15 17:18:00,
2013-12-15 10:28:00,33.5,28.5,30.04,East,90,1.8,4.0,82,0.00,,,0.00,WUHU216HW,2013-12-15 17:28:00,
2013-12-15 10:38:00,33.8,28.5,30.03,NE,45,1.8,2.7,81,0.00,,,0.00,WUHU216HW,2013-12-15 17:38:00,
2013-12-15 10:48:00,34.2,28.9,30.03,NE,45,1.8,4.3,81,0.00,,,0.00,WUHU216HW,2013-12-15 17:48:00,
2013-12-15 10:58:00,34.6,29.3,30.03,East,90,2.9,3.4,81,0.00,,,0.00,WUHU216HW,2013-12-15 17:58:00,
2013-12-15 11:08:00,34.7,29.4,30.03,NNW,338,1.1,2.2,81,0.00,,,0.00,WUHU216HW,2013-12-15 18:08:00,
2013-12-15 11:18:00,35.3,29.1,30.02,West,270,5.6,11.4,78,0.00,,,0.00,WUHU216HW,2013-12-15 18:18:00,
2013-12-15 11:28:00,36.5,30.0,30.02,NW,315,1.8,3.6,77,0.00,,,0.00,WUHU216HW,2013-12-15 18:28:00,
2013-12-15 11:38:00,36.2,29.6,30.02,WSW,248,2.9,4.0,77,0.00,,,0.00,WUHU216HW,2013-12-15 18:38:00,
2013-12-15 11:48:00,35.6,29.4,30.02,West,270,2.5,2.9,78,0.00,,,0.00,WUHU216HW,2013-12-15 18:48:00,
2013-12-15 11:58:00,35.8,29.6,30.02,West,270,0.9,1.8,78,0.00,,,0.00,WUHU216HW,2013-12-15 18:58:00,
2013-12-15 12:08:00,36.4,30.2,30.02,North,0,0.4,3.4,78,0.00,,,0.00,WUHU216HW,2013-12-15 19:08:00,
2013-12-15 12:18:00,36.7,30.2,30.01,ESE,113,1.8,4.7,77,0.00,,,0.00,WUHU216HW,2013-12-15 19:18:00,
2013-12-15 12:28:00,37.6,30.8,30.01,NE,45,3.4,3.8,76,0.00,,,0.00,WUHU216HW,2013-12-15 19:28:00,
2013-12-15 12:38:00,38.5,31.6,30.01,East,90,3.1,3.8,76,0.00,,,0.00,WUHU216HW,2013-12-15 19:38:00,
2013-12-15 12:48:00,39.1,31.8,30.01,ENE,68,3.4,3.4,75,0.00,,,0.00,WUHU216HW,2013-12-15 19:48:00,
2013-12-15 12:58:00,40.0,31.3,30.01,NE,45,1.8,4.9,71,0.00,,,0.00,WUHU216HW,2013-12-15 19:58:00,
2013-12-15 13:08:00,40.7,31.7,30.00,NE,45,2.0,4.0,70,0.00,,,0.00,WUHU216HW,2013-12-15 20:08:00,
2013-12-15 13:18:00,41.6,31.4,30.00,NNW,338,2.9,4.0,67,0.00,,,0.00,WUHU216HW,2013-12-15 20:18:00,
2013-12-15 13:28:00,42.1,31.6,30.01,NNE,23,2.5,5.4,66,0.00,,,0.00,WUHU216HW,2013-12-15 20:28:00,
2013-12-15 13:38:00,42.8,30.2,30.00,NNE,23,6.5,7.2,61,0.00,,,0.00,WUHU216HW,2013-12-15 20:38:00,
2013-12-15 13:48:00,43.6,31.4,30.01,ENE,68,2.9,5.6,62,0.00,,,0.00,WUHU216HW,2013-12-15 20:48:00,
2013-12-15 13:58:00,43.9,31.0,30.00,NNW,338,3.4,6.9,60,0.00,,,0.00,WUHU216HW,2013-12-15 20:58:00,
2013-12-15 14:08:00,44.3,32.0,29.99,SSE,158,1.3,6.9,62,0.00,,,0.00,WUHU216HW,2013-12-15 21:08:00,
2013-12-15 14:18:00,44.3,32.0,29.99,NNE,23,4.0,5.4,62,0.00,,,0.00,WUHU216HW,2013-12-15 21:18:00,
2013-12-15 14:28:00,44.8,31.4,30.00,NE,45,3.4,11.0,59,0.00,,,0.00,WUHU216HW,2013-12-15 21:28:00,
2013-12-15 14:38:00,45.0,31.6,29.99,East,90,9.8,9.8,59,0.00,,,0.00,WUHU216HW,2013-12-15 21:38:00,
2013-12-15 14:48:00,45.0,32.4,30.00,North,0,8.1,8.1,61,0.00,,,0.00,WUHU216HW,2013-12-15 21:48:00,
2013-12-15 14:58:00,45.2,32.6,30.00,WNW,293,6.3,11.4,61,0.00,,,0.00,WUHU216HW,2013-12-15 21:58:00,
2013-12-15 15:08:00,45.7,32.2,30.00,South,180,3.6,8.3,59,0.00,,,0.00,WUHU216HW,2013-12-15 22:08:00,
2013-12-15 15:18:00,45.9,32.9,29.99,WNW,293,6.3,12.5,60,0.00,,,0.00,WUHU216HW,2013-12-15 22:18:00,
2013-12-15 15:28:00,46.4,32.9,30.00,North,0,4.7,7.2,59,0.00,,,0.00,WUHU216HW,2013-12-15 22:28:00,
2013-12-15 15:38:00,46.1,33.4,30.01,NW,315,4.7,4.7,61,0.00,,,0.00,WUHU216HW,2013-12-15 22:38:00,
2013-12-15 15:48:00,46.3,33.6,30.01,NW,315,2.7,6.3,61,0.00,,,0.00,WUHU216HW,2013-12-15 22:48:00,
2013-12-15 15:58:00,46.1,33.4,30.02,East,90,0.9,4.9,61,0.00,,,0.00,WUHU216HW,2013-12-15 22:58:00,
2013-12-15 16:08:00,45.7,33.0,30.01,WSW,248,4.0,4.0,61,0.00,,,0.00,WUHU216HW,2013-12-15 23:08:00,
2013-12-15 16:18:00,45.9,33.2,30.02,NW,315,6.5,11.4,61,0.00,,,0.00,WUHU216HW,2013-12-15 23:18:00,
2013-12-15 16:28:00,45.9,33.2,30.02,WNW,293,4.0,6.3,61,0.00,,,0.00,WUHU216HW,2013-12-15 23:28:00,
2013-12-15 16:38:00,45.7,33.4,30.02,NNE,23,1.8,6.3,62,0.00,,,0.00,WUHU216HW,2013-12-15 23:38:00,
2013-12-15 16:49:00,45.4,33.1,30.01,NNE,23,6.3,6.5,62,0.00,,,0.00,WUHU216HW,2013-12-15 23:49:00,
2013-12-15 16:59:00,45.4,33.1,30.00,North,0,1.8,4.3,62,0.00,,,0.00,WUHU216HW,2013-12-15 23:59:00,
2013-12-15 17:09:00,45.2,33.3,30.01,North,0,4.0,8.3,63,0.00,,,0.00,WUHU216HW,2013-12-16 00:09:00,
2013-12-15 17:19:00,44.8,32.9,30.01,West,270,4.7,5.8,63,0.00,,,0.00,WUHU216HW,2013-12-16 00:19:00,
2013-12-15 17:29:00,44.8,32.9,30.01,NNW,338,1.3,5.6,63,0.00,,,0.00,WUHU216HW,2013-12-16 00:29:00,
2013-12-15 17:39:00,44.3,32.5,30.01,NNW,338,1.1,1.8,63,0.00,,,0.00,WUHU216HW,2013-12-16 00:39:00,
2013-12-15 17:49:00,44.1,32.7,30.01,WNW,293,0.0,4.0,64,0.00,,,0.00,WUHU216HW,2013-12-16 00:49:00,
2013-12-15 17:59:00,43.6,32.6,30.01,SSE,158,0.7,2.9,65,0.00,,,0.00,WUHU216HW,2013-12-16 00:59:00,
2013-12-15 18:09:00,43.6,33.0,30.02,WNW,293,1.1,3.6,66,0.00,,,0.00,WUHU216HW,2013-12-16 01:09:00,
2013-12-15 18:19:00,43.4,32.8,30.02,East,90,2.9,2.9,66,0.00,,,0.00,WUHU216HW,2013-12-16 01:19:00,
2013-12-15 18:29:00,43.2,32.6,30.02,ESE,113,6.0,6.3,66,0.00,,,0.00,WUHU216HW,2013-12-16 01:29:00,
2013-12-15 18:39:00,43.6,33.3,30.02,West,270,1.6,6.3,67,0.00,,,0.00,WUHU216HW,2013-12-16 01:39:00,
2013-12-15 18:49:00,44.3,33.6,30.02,NNW,338,1.1,5.8,66,0.00,,,0.00,WUHU216HW,2013-12-16 01:49:00,
2013-12-15 18:59:00,44.8,33.4,30.02,North,0,1.8,10.7,64,0.00,,,0.00,WUHU216HW,2013-12-16 01:59:00,
2013-12-15 19:09:00,45.0,33.6,30.02,NNE,23,1.3,5.8,64,0.00,,,0.00,WUHU216HW,2013-12-16 02:09:00,
2013-12-15 19:19:00,45.0,33.6,30.02,North,0,2.9,4.3,64,0.00,,,0.00,WUHU216HW,2013-12-16 02:19:00,
2013-12-15 19:29:00,44.6,33.2,30.03,NE,45,5.4,7.6,64,0.00,,,0.00,WUHU216HW,2013-12-16 02:29:00,
2013-12-15 19:39:00,44.5,33.0,30.03,NNW,338,1.6,6.0,64,0.00,,,0.00,WUHU216HW,2013-12-16 02:39:00,
2013-12-15 19:49:00,44.6,33.6,30.04,WSW,248,4.0,8.5,65,0.00,,,0.00,WUHU216HW,2013-12-16 02:49:00,
2013-12-15 19:59:00,44.6,33.6,30.04,North,0,3.6,5.4,65,0.00,,,0.00,WUHU216HW,2013-12-16 02:59:00,
2013-12-15 20:09:00,44.3,33.2,30.04,SW,225,0.0,4.3,65,0.00,,,0.00,WUHU216HW,2013-12-16 03:09:00,
2013-12-15 20:19:00,44.3,33.2,30.04,NE,45,5.6,9.2,65,0.00,,,0.00,WUHU216HW,2013-12-16 03:19:00,
2013-12-15 20:29:00,44.5,33.8,30.03,NNE,23,0.4,2.9,66,0.00,,,0.00,WUHU216HW,2013-12-16 03:29:00,
2013-12-15 20:39:00,44.3,33.2,30.03,North,0,2.7,7.6,65,0.00,,,0.00,WUHU216HW,2013-12-16 03:39:00,
2013-12-15 20:49:00,45.2,33.7,30.03,WNW,293,3.4,9.8,64,0.00,,,0.00,WUHU216HW,2013-12-16 03:49:00,
2013-12-15 20:59:00,45.4,33.5,30.03,SW,225,2.5,17.0,63,0.00,,,0.00,WUHU216HW,2013-12-16 03:59:00,
2013-12-15 21:09:00,45.4,33.5,30.02,WNW,293,5.6,6.0,63,0.00,,,0.00,WUHU216HW,2013-12-16 04:09:00,
2013-12-15 21:19:00,45.0,33.1,30.02,NW,315,2.5,6.0,63,0.00,,,0.00,WUHU216HW,2013-12-16 04:19:00,
2013-12-15 21:29:00,44.6,33.2,30.02,WSW,248,6.7,7.2,64,0.00,,,0.00,WUHU216HW,2013-12-16 04:29:00,
2013-12-15 21:39:00,45.2,33.3,30.02,WSW,248,2.2,7.2,63,0.00,,,0.00,WUHU216HW,2013-12-16 04:39:00,
2013-12-15 21:49:00,45.2,33.3,30.02,SW,225,5.8,9.8,63,0.00,,,0.00,WUHU216HW,2013-12-16 04:49:00,
2013-12-15 21:59:00,45.4,33.1,30.02,SW,225,11.0,14.1,62,0.00,,,0.00,WUHU216HW,2013-12-16 04:59:00,
2013-12-15 22:09:00,45.5,33.3,30.02,South,180,3.4,12.1,62,0.00,,,0.00,WUHU216HW,2013-12-16 05:09:00,
2013-12-15 22:19:00,45.7,33.4,30.03,SW,225,3.6,9.6,62,0.00,,,0.00,WUHU216HW,2013-12-16 05:19:00,
2013-12-15 22:29:00,45.7,33.0,30.03,SSE,158,4.0,6.9,61,0.00,,,0.00,WUHU216HW,2013-12-16 05:29:00,
2013-12-15 22:39:00,45.7,33.0,30.03,WNW,293,2.7,4.7,61,0.00,,,0.00,WUHU216HW,2013-12-16 05:39:00,
2013-12-15 22:49:00,45.5,32.5,30.03,West,270,13.4,13.4,60,0.00,,,0.00,WUHU216HW,2013-12-16 05:49:00,
2013-12-15 22:59:00,45.7,32.7,30.03,North,0,5.1,10.3,60,0.00,,,0.00,WUHU216HW,2013-12-16 05:59:00,
2013-12-15 23:09:00,45.7,32.7,30.02,NE,45,2.2,9.2,60,0.00,,,0.00,WUHU216HW,2013-12-16 06:09:00,
2013-12-15 23:19:00,45.2,33.0,30.03,WSW,248,3.4,6.3,62,0.00,,,0.00,WUHU216HW,2013-12-16 06:19:00,
2013-12-15 23:29:00,45.0,32.8,30.03,SE,135,4.0,5.4,62,0.00,,,0.00,WUHU216HW,2013-12-16 06:29:00,
2013-12-15 23:39:00,44.8,32.6,30.03,NNE,23,4.5,4.5,62,0.00,,,0.00,WUHU216HW,2013-12-16 06:39:00,
2013-12-15 23:50:00,44.6,32.4,30.03,East,90,5.1,7.6,62,0.00,,,0.00,WUHU216HW,2013-12-16 06:50:00,